Location: Mentone
(34.5413°N, 85.5351°W)
Time: 02:15:57
(UTC-05:00)

AO-Echo - Visible Passes

Search period start: 18 April 2015 00:00
Search period end: 28 April 2015 00:00
Orbit: 694 x 812 km, 98.3° (Epoch: 17 April)

Date Brightness Start Highest point End Pass type
(mag) Time Alt. Az. Time Alt. Az. Time Alt. Az.
18 Apr ? 02:11:56 10° NNE 02:12:50 15° NNE 02:12:50 15° NNE visible
18 Apr ? 03:52:06 10° NNW 03:52:47 12° NW 03:52:47 12° NW visible
19 Apr ? 03:10:27 10° N 03:12:06 20° NNW 03:12:06 20° NNW visible
20 Apr ? 02:29:55 10° NNE 02:31:24 20° NNE 02:31:24 20° NNE visible
21 Apr ? 01:50:17 10° NE 01:50:43 12° NE 01:50:43 12° NE visible
21 Apr ? 03:29:02 10° NNW 03:30:40 18° NNW 03:30:40 18° NNW visible
22 Apr ? 02:48:05 10° N 02:49:58 24° N 02:49:58 24° N visible
23 Apr ? 02:08:00 10° NNE 02:09:17 18° NE 02:09:17 18° NE visible
23 Apr ? 03:47:55 10° NNW 03:49:14 14° NW 03:49:14 14° NW visible
24 Apr ? 03:06:26 10° N 03:08:32 25° NNW 03:08:32 25° NNW visible
25 Apr ? 02:25:57 10° NNE 02:27:50 24° NNE 02:27:50 24° NNE visible
26 Apr ? 01:46:25 10° NE 01:47:08 13° NE 01:47:08 13° NE visible
26 Apr ? 03:24:57 10° NNW 03:27:05 21° NW 03:27:05 21° NW visible
27 Apr ? 02:44:05 10° N 02:46:23 29° N 02:46:23 29° N visible
